Hourly Data Report for August 16, 2017

PITT MEADOWS CS
BRITISH COLUMBIA

49°12'29.964" N
122°41'24.076" W
5.00 m
1106178
71775
WMM

Download Data

Hourly Data (August 2017)
Hourly Data Report for August 16, 2017
TIME
LST
Temp Definition
°C
Dew Point Definition
°C
Rel Hum Definition
%
Precip. Amount Definition
mm

Wind Dir Definition
10's deg

Wind Spd Definition
km/h
Visibility Definition
km
Stn Press Definition
kPa
Hmdx Definition


Wind Chill Definition


Weather Definition


00:00 15.5 11.9 79 0.0 12 2   101.59     LegendNANA
01:00 14.0 11.5 85 0.0 12 2   101.60     LegendNANA
02:00 13.5 11.3 86 0.0 0 1   101.63     LegendNANA
03:00 13.0 11.0 88 0.0 0 1   101.68     LegendNANA
04:00 12.9 11.4 90 0.0 7 1   101.71     LegendNANA
05:00 13.3 11.5 89 0.0 10 2   101.74     LegendNANA
06:00 14.1 11.4 83 0.0 12 1   101.76     LegendNANA
07:00 16.0 11.0 72 0.0 11 1   101.79     LegendNANA
08:00 17.7 11.5 67 0.0 16 3   101.82     LegendNANA
09:00 18.3 11.8 66 0.0 14 3   101.83     LegendNANA
10:00 18.8 11.1 61 0.0 14 4   101.84     LegendNANA
11:00 20.3 12.6 61 0.0 15 9   101.86     LegendNANA
12:00 21.7 12.6 56 0.0 15 8   101.85     LegendNANA
13:00 21.0 11.9 56 0.0 11 5   101.83     LegendNANA
14:00 23.2 12.1 50 0.0 12 7   101.78 26   LegendNANA
15:00 24.8 12.0 45 0.0 21 5   101.74 27   LegendNANA
16:00 24.8 12.8 47 0.0 22 8   101.70 27   LegendNANA
17:00 24.0 12.2 48 0.0 23 8   101.67 26   LegendNANA
18:00 23.6 12.8 51 0.0 19 4   101.66 26   LegendNANA
19:00 22.0 13.4 58 0.0 16 4   101.68 25   LegendNANA
20:00 19.4 13.7 70 0.0 10 3   101.73     LegendNANA
21:00 18.9 13.8 72 0.0 16 3   101.75     LegendNANA
22:00 17.4 13.8 79 0.0 11 5   101.78     LegendNANA
23:00 17.0 13.8 81 0.0 13 6   101.82     LegendNANA

Notes on Data Quality.

Legend

  • E = Estimated
  • M = Missing
  • NA = Not Available*
  • [empty] = Indicates an unobserved value
Date modified: